Wind_Speed
42 41 40 40 40 40 39 38 38 37 37 36 37 37 38 36 38 39 38 38 38 38 39 40 40 40 39 39 38 39 34 25 19 26 29 28 32 33 31 22 31 41 42 36 37
46 46 45 45 44 44 43 42 43 42 42 40 42 41 42 41 42 44 41 42 42 39 37 38 43 45 44 45 42 41 38 27 23 29 34 26 33 35 33 26 34 38 42 32 35
52 52 50 50 49 49 48 47 46 47 46 45 44 44 44 45 45 46 43 42 42 43 41 40 42 44 47 50 47 45 42 31 24 28 39 31 29 39 33 33 35 37 40 36 38
57 56 56 54 53 53 53 52 51 50 49 48 48 44 46 48 47 49 47 46 45 45 47 46 47 48 52 49 44 47 41 37 31 30 37 39 25 32 38 31 35 37 43 42 36
61 62 60 60 58 57 57 55 53 51 49 47 49 47 45 46 42 52 48 47 49 47 47 48 49 53 54 45 41 40 39 39 38 31 32 38 34 33 39 37 35 41 45 44 35
63 66 63 62 61 60 59 59 55 53 51 49 54 57 60 54 49 51 52 51 52 51 50 51 53 55 52 45 40 39 41 38 36 31 34 38 35 35 32 39 43 44 44 41 31
69 69 65 63 65 61 60 58 57 57 59 58 64 62 61 48 53 59 61 58 59 57 57 60 60 60 49 46 41 42 42 37 33 28 31 35 38 29 26 34 38 38 38 38 32
66 65 65 64 64 62 63 61 65 61 63 64 64 61 67 55 64 62 63 61 60 61 61 60 59 57 47 45 41 44 43 38 22 31 30 36 33 30 29 31 32 32 40 38 30
69 69 69 67 66 67 67 66 68 67 66 65 67 70 73 68 64 64 62 64 62 61 60 56 52 48 45 41 44 37 41 35 32 28 33 38 36 32 29 34 34 34 36 37 38
86 79 79 77 75 73 70 70 72 72 72 72 72 73 73 74 73 69 69 69 67 62 59 52 52 50 45 39 43 37 37 35 32 29 34 36 34 34 36 26 36 39 37 38 36
64 66 66 69 75 92 82 82 82 80 79 78 78 76 79 76 71 70 69 63 56 55 54 51 53 49 37 37 39 38 35 35 30 27 31 33 33 34 37 31 28 37 41 38 32
62 58 58 63 63 71 81 88 87 87 87 85 83 80 73 68 64 65 58 56 52 50 49 50 50 40 37 37 37 34 35 32 25 26 32 34 36 36 38 41 33 30 33 34 33
58 65 67 65 64 61 61 65 66 65 73 67 67 67 64 67 61 59 60 52 46 47 48 48 44 42 39 38 36 35 34 31 29 27 33 37 37 36 37 38 38 34 35 37 35
63 62 56 59 65 64 60 64 68 66 66 58 58 55 58 57 59 53 54 53 50 46 44 47 45 40 43 39 37 37 33 33 36 35 37 40 40 35 32 35 35 34 34 37 37
65 63 65 62 56 55 55 55 55 51 51 57 59 54 51 52 53 53 50 52 48 43 42 44 42 42 43 40 40 39 37 39 41 42 40 47 43 41 28 34 32 39 37 37 37
68 64 62 60 63 60 57 49 43 38 46 47 52 50 50 50 48 49 45 45 44 46 46 46 41 43 42 41 43 44 43 43 43 44 46 48 41 41 39 40 40 43 42 44 46
68 67 64 64 59 59 58 46 51 51 42 41 42 40 41 36 36 39 41 43 42 42 43 38 41 39 43 45 45 46 46 44 46 46 47 49 45 44 44 44 44 43 44 46 46
70 68 66 68 65 67 64 64 60 53 62 64 58 51 51 50 42 41 39 39 41 42 42 44 43 43 41 46 45 46 46 47 48 48 46 48 54 48 49 43 41 39 42 42 46
65 64 66 65 65 66 68 71 67 67 58 56 57 63 68 56 45 40 41 41 36 36 38 40 44 45 48 44 46 40 44 44 45 45 48 51 52 46 42 40 46 46 51 47 46
65 62 64 59 63 62 61 66 66 55 51 54 54 57 61 57 49 45 44 44 42 41 43 41 37 43 46 48 46 44 44 42 44 43 45 48 49 49 45 33 33 36 42 45 51
59 57 58 58 63 62 63 62 57 51 48 49 48 52 51 50 52 52 47 45 47 47 47 46 45 41 44 44 47 47 41 39 40 44 46 49 49 52 53 53 54 54 56 52 51
65 69 64 65 60 62 58 56 54 49 59 50 56 58 56 57 59 50 48 46 46 46 47 49 50 49 45 46 52 52 53 55 54 55 53 52 55 57 54 44 45 51 54 54 55
78 67 65 60 65 58 60 57 57 55 61 63 60 63 64 63 59 59 57 54 50 46 51 55 56 55 54 50 53 55 55 55 57 56 55 53 53 51 55 58 60 59 58 57 60
63 54 56 50 53 52 45 55 60 63 69 71 62 71 68 68 69 66 54 43 44 44 47 53 55 58 58 55 51 55 55 53 53 55 51 49 51 47 52 53 47 49 54 53 53
70 53 67 61 53 52 43 50 53 60 60 53 59 73 74 69 66 50 45 42 46 46 50 55 54 53 54 54 55 56 53 54 56 53 55 46 46 45 46 48 46 43 45 48 50
54 43 41 39 41 48 53 56 51 53 50 55 56 58 58 59 55 55 50 46 47 50 52 54 55 53 53 51 53 54 49 49 49 47 49 48 52 47 47 53 58 59 60 58 57
42 52 40 50 59 57 57 59 58 53 58 59 60 60 57 59 54 51 50 49 49 49 47 49 46 47 48 45 45 48 48 41 42 41 42 45 44 45 50 53 54 52 51 53 53
Wind_Direction
244 243 244 244 243 243 241 244 247 250 255 258 261 264 266 269 272 273 277 278 280 282 283 284 287 293 299 305 309 302 300 307 288 271 268 275 275 281 289 293 276 272 275 279 288
245 245 245 245 246 247 248 248 251 253 256 257 262 267 269 270 273 276 281 281 280 279 279 285 289 292 296 297 302 302 296 301 290 283 284 288 288 279 285 274 274 275 276 281 283
248 248 248 249 251 251 252 255 255 256 259 262 264 268 270 271 273 277 280 278 278 278 280 287 294 298 299 294 298 298 297 295 295 286 291 288 281 279 278 277 277 276 275 281 284
252 253 253 252 253 253 254 255 257 259 259 262 263 265 272 272 276 273 274 277 278 279 282 289 295 300 297 298 291 291 296 297 294 284 288 290 268 263 274 275 274 280 281 279 279
255 255 255 256 256 258 258 257 259 259 260 263 266 267 269 271 281 274 278 279 280 280 283 287 294 298 295 300 289 289 294 293 295 295 283 278 280 259 258 267 271 278 275 278 278
258 261 258 257 259 258 259 259 258 257 258 261 267 275 274 274 278 278 281 283 281 283 285 290 293 293 292 290 293 288 290 292 292 290 280 279 277 264 267 263 267 270 272 279 272
251 253 257 256 256 258 258 258 258 257 259 263 265 271 272 274 275 279 283 279 278 282 285 290 289 291 285 286 288 292 291 295 299 285 274 275 275 285 269 262 262 263 268 272 276
250 252 254 256 256 257 258 257 258 258 258 262 265 267 274 270 276 278 280 283 280 280 282 284 285 285 282 281 287 285 290 294 284 276 277 272 279 276 269 262 256 259 268 269 266
252 254 254 254 257 258 258 257 258 260 260 261 265 270 276 273 274 275 279 283 280 278 280 282 282 281 279 281 282 290 286 281 277 270 274 275 280 278 270 267 258 256 259 269 275
245 249 252 254 255 256 259 261 262 261 262 263 268 273 277 279 278 278 277 278 277 276 277 279 278 277 277 283 284 275 275 277 275 272 273 277 283 287 289 267 272 270 263 264 264
257 260 260 260 257 254 253 255 260 263 265 267 269 272 275 276 275 278 280 278 272 271 272 273 272 277 281 275 273 276 275 275 276 276 273 275 277 281 287 283 273 276 280 278 278
259 256 267 263 260 259 259 259 258 261 263 265 268 270 271 274 271 273 273 273 275 275 270 267 269 275 270 266 268 267 269 270 267 268 266 270 273 272 275 280 289 281 274 276 275
259 262 264 255 253 266 261 264 265 267 265 263 265 266 268 265 267 270 272 272 271 269 266 266 266 265 263 264 264 265 269 272 271 259 257 264 272 270 270 277 278 277 280 276 269
269 269 270 267 265 266 262 271 270 269 267 266 268 264 264 264 263 266 270 274 268 268 267 263 262 262 261 260 259 262 259 263 265 265 265 262 277 268 279 278 277 274 267 268 273
260 260 266 269 264 264 265 264 261 259 260 267 271 270 267 264 264 264 265 266 269 268 258 261 258 258 257 263 260 257 258 255 259 266 270 269 273 281 275 275 279 264 267 270 273
253 253 251 255 264 268 260 260 253 257 263 259 267 270 271 268 266 265 265 263 260 258 259 258 259 261 261 259 262 263 259 260 260 265 267 271 273 275 274 266 265 270 269 265 267
252 252 253 254 254 248 255 253 249 251 262 264 262 263 270 277 279 277 270 264 262 259 259 260 255 248 251 252 257 260 261 261 262 257 271 274 276 270 265 267 266 267 269 270 266
253 253 253 254 254 252 254 243 250 247 270 274 271 263 277 278 281 285 280 273 265 262 258 256 254 255 252 253 256 258 263 265 264 265 266 264 266 264 268 266 266 267 259 255 252
252 254 255 253 254 255 257 259 257 265 264 264 266 272 276 278 276 271 275 273 268 265 258 258 257 253 254 253 256 264 259 266 266 263 262 266 265 262 265 258 267 266 259 247 241
250 251 253 254 253 252 253 255 259 261 258 259 256 260 269 272 265 261 267 270 263 258 262 262 269 264 262 268 262 259 258 251 253 253 255 263 263 256 250 243 244 250 253 257 255
247 244 244 248 243 251 250 252 256 259 257 251 255 247 242 253 256 255 255 254 261 259 261 264 269 268 267 266 262 259 242 235 244 249 254 259 256 262 262 262 261 259 260 262 267
228 229 234 228 238 240 253 256 253 246 241 244 238 241 240 238 238 236 239 241 247 254 262 266 267 267 264 263 262 258 254 253 252 255 257 260 256 257 258 261 263 266 265 262 260
223 217 220 222 229 233 238 244 242 244 238 235 240 236 234 231 229 228 231 237 247 258 266 266 264 264 263 258 255 258 258 262 266 268 269 268 268 267 267 266 267 267 265 264 266
220 236 215 218 225 227 233 235 238 238 239 239 239 241 235 239 242 242 249 259 259 261 264 264 261 261 261 259 256 256 257 257 259 259 259 261 269 271 272 274 273 271 270 269 268
254 264 260 254 252 224 245 242 238 237 237 246 245 240 244 241 248 257 258 256 257 257 261 261 261 261 258 258 258 258 257 260 262 265 264 261 260 262 270 271 264 262 271 275 275
268 260 237 253 258 251 248 242 245 237 244 247 245 251 251 255 257 264 268 261 253 259 264 262 261 257 257 261 264 265 264 266 263 266 266 263 260 264 264 260 272 278 282 283 280
268 276 255 229 231 232 235 231 231 240 251 242 241 249 257 254 261 264 262 257 248 254 260 258 259 262 264 265 264 262 270 271 267 263 268 270 269 265 266 270 274 276 277 280 283
Height
5834 5836 5839 5841 5844 5845 5847 5849 5852 5854 5857 5859 5861 5863 5863 5864 5864 5863 5867 5868 5868 5865 5865 5865 5864 5864 5863 5862 5859 5856 5854 5857 5856 5851 5849 5851 5850 5848 5849 5852 5846 5841 5841 5844 5843
5826 5829 5831 5834 5836 5838 5841 5842 5844 5846 5849 5850 5853 5855 5856 5858 5858 5857 5860 5860 5860 5859 5859 5859 5858 5856 5855 5855 5854 5850 5849 5851 5850 5846 5842 5847 5843 5842 5844 5847 5840 5838 5836 5842 5837
5817 5820 5822 5825 5827 5830 5832 5835 5836 5838 5840 5842 5844 5847 5847 5849 5849 5851 5851 5850 5851 5852 5851 5850 5850 5848 5848 5845 5845 5842 5842 5842 5842 5840 5836 5840 5838 5833 5838 5837 5836 5833 5831 5835 5830
5807 5810 5814 5816 5818 5821 5823 5826 5828 5829 5831 5833 5836 5837 5839 5840 5843 5842 5844 5844 5843 5843 5843 5841 5841 5839 5838 5838 5837 5832 5834 5833 5834 5833 5829 5827 5833 5832 5829 5833 5828 5828 5823 5825 5828
5797 5800 5803 5806 5808 5811 5814 5815 5818 5820 5821 5823 5827 5829 5831 5832 5836 5831 5836 5836 5835 5834 5834 5833 5833 5830 5829 5828 5826 5825 5825 5823 5824 5825 5823 5820 5821 5824 5825 5826 5823 5818 5816 5817 5822
5785 5789 5792 5794 5797 5800 5802 5805 5807 5810 5812 5812 5816 5819 5823 5827 5824 5824 5824 5827 5826 5825 5825 5824 5823 5822 5821 5820 5819 5817 5817 5815 5814 5817 5814 5811 5811 5811 5819 5818 5814 5809 5809 5810 5817
5773 5778 5781 5783 5786 5788 5791 5794 5796 5799 5801 5801 5804 5806 5810 5818 5813 5815 5817 5816 5816 5816 5814 5814 5814 5811 5813 5811 5811 5809 5808 5808 5808 5808 5805 5804 5798 5804 5809 5806 5804 5802 5803 5805 5809
5759 5762 5766 5770 5773 5775 5779 5781 5785 5787 5789 5790 5792 5793 5795 5804 5800 5805 5800 5805 5807 5805 5805 5804 5804 5801 5802 5801 5802 5797 5800 5799 5803 5797 5799 5795 5793 5798 5798 5796 5796 5796 5792 5798 5803
5745 5749 5753 5756 5759 5762 5765 5769 5772 5775 5777 5778 5780 5781 5785 5788 5791 5792 5793 5792 5790 5792 5793 5793 5794 5791 5791 5793 5789 5794 5788 5790 5790 5791 5790 5787 5786 5789 5790 5788 5788 5789 5790 5789 5789
5730 5735 5738 5742 5745 5747 5750 5753 5756 5762 5764 5766 5768 5772 5774 5772 5774 5778 5778 5780 5781 5779 5779 5782 5781 5779 5783 5784 5781 5781 5778 5779 5781 5783 5781 5778 5778 5777 5777 5783 5779 5779 5783 5782 5785
5717 5720 5724 5727 5728 5735 5737 5741 5745 5748 5750 5755 5754 5757 5758 5756 5760 5761 5760 5762 5766 5768 5768 5769 5768 5770 5776 5773 5772 5770 5770 5770 5773 5773 5771 5770 5770 5770 5769 5773 5774 5773 5773 5775 5776
5704 5706 5709 5711 5712 5717 5723 5725 5725 5731 5733 5738 5739 5739 5745 5746 5746 5746 5752 5750 5754 5755 5755 5757 5760 5764 5762 5762 5761 5760 5760 5762 5764 5766 5764 5763 5761 5761 5762 5762 5767 5770 5769 5768 5766
5693 5695 5697 5700 5701 5704 5707 5709 5711 5713 5712 5722 5724 5728 5730 5728 5734 5739 5734 5738 5742 5743 5743 5746 5752 5750 5751 5752 5752 5752 5752 5753 5754 5757 5757 5756 5755 5755 5755 5756 5759 5760 5762 5761 5761
5680 5684 5684 5687 5691 5693 5696 5696 5698 5699 5693 5710 5711 5714 5714 5716 5719 5727 5726 5726 5727 5732 5735 5736 5737 5741 5739 5742 5743 5743 5744 5743 5743 5745 5746 5746 5745 5750 5756 5752 5751 5753 5753 5751 5751
5667 5670 5672 5676 5680 5683 5686 5686 5685 5686 5682 5691 5693 5699 5700 5706 5708 5711 5715 5712 5717 5721 5722 5725 5728 5729 5730 5732 5731 5733 5733 5733 5733 5734 5737 5732 5734 5741 5748 5743 5742 5736 5737 5739 5739
5654 5657 5660 5662 5667 5673 5675 5676 5674 5675 5674 5679 5682 5683 5685 5691 5696 5699 5703 5702 5704 5705 5708 5713 5717 5717 5722 5722 5721 5720 5720 5723 5725 5725 5725 5724 5729 5733 5731 5731 5728 5728 5729 5730 5728
5639 5643 5647 5650 5656 5658 5662 5664 5662 5660 5668 5670 5674 5676 5678 5679 5684 5688 5692 5692 5694 5695 5698 5703 5703 5707 5707 5709 5710 5710 5711 5712 5715 5714 5717 5715 5716 5717 5716 5716 5718 5720 5718 5718 5717
5620 5625 5632 5636 5641 5642 5645 5647 5645 5657 5654 5658 5662 5667 5672 5671 5675 5677 5679 5682 5683 5684 5686 5688 5694 5694 5699 5698 5699 5700 5700 5702 5700 5703 5711 5706 5701 5701 5705 5708 5710 5710 5706 5706 5707
5604 5607 5614 5621 5625 5627 5629 5624 5635 5644 5638 5644 5646 5652 5658 5659 5663 5664 5669 5674 5675 5674 5676 5678 5682 5681 5683 5689 5690 5697 5689 5694 5691 5692 5693 5699 5689 5689 5695 5697 5700 5702 5700 5694 5693
5587 5591 5597 5602 5607 5608 5608 5614 5627 5627 5624 5629 5635 5640 5646 5648 5648 5651 5656 5661 5663 5662 5665 5668 5673 5674 5674 5677 5677 5682 5683 5683 5679 5679 5679 5688 5682 5679 5680 5688 5690 5693 5694 5689 5679
5572 5576 5584 5589 5589 5587 5589 5603 5611 5612 5613 5619 5623 5627 5630 5633 5634 5639 5642 5644 5648 5649 5653 5658 5663 5670 5666 5670 5668 5671 5673 5672 5670 5669 5669 5673 5670 5668 5670 5671 5677 5683 5681 5678 5674
5557 5561 5569 5572 5574 5571 5579 5589 5595 5598 5596 5605 5608 5615 5618 5619 5620 5623 5631 5630 5636 5640 5640 5644 5646 5652 5658 5659 5656 5660 5660 5660 5657 5659 5660 5659 5660 5659 5660 5659 5663 5665 5666 5664 5663
5540 5544 5549 5553 5558 5560 5565 5573 5577 5582 5586 5589 5593 5597 5603 5607 5605 5609 5612 5615 5620 5627 5627 5626 5632 5639 5643 5648 5643 5645 5648 5648 5646 5644 5647 5645 5646 5652 5649 5647 5648 5650 5649 5649 5647
5527 5530 5534 5538 5543 5548 5551 5555 5560 5567 5569 5570 5577 5581 5585 5592 5591 5593 5597 5600 5605 5609 5613 5612 5619 5623 5627 5630 5632 5630 5634 5635 5636 5634 5636 5637 5635 5635 5636 5634 5634 5634 5631 5632 5634
5513 5514 5519 5526 5530 5533 5539 5543 5546 5550 5552 5557 5559 5563 5568 5573 5576 5576 5585 5587 5589 5593 5598 5600 5603 5609 5611 5613 5614 5615 5619 5622 5619 5623 5618 5631 5624 5630 5625 5620 5619 5620 5619 5618 5623
5498 5504 5509 5512 5513 5519 5522 5530 5533 5535 5540 5542 5544 5547 5552 5554 5558 5563 5567 5573 5576 5579 5586 5588 5592 5594 5595 5601 5599 5597 5606 5608 5607 5610 5605 5610 5611 5621 5615 5606 5605 5606 5604 5606 5606
5486 5485 5494 5500 5502 5506 5510 5515 5516 5519 5524 5529 5530 5535 5538 5540 5545 5550 5553 5559 5563 5565 5573 5575 5579 5581 5580 5589 5584 5580 5600 5597 5596 5595 5595 5595 5602 5606 5602 5598 5594 5593 5595 5595 5592